period_start,C,m1,H,J0,J1,J2,J3,J4,J5,JA,JB,JC,JD,JJ,JK,JN,#
2013-07-22 00:00:23,0.03,0.88,0.00,25.45,28.32,30.59,5.96,33.88,1018.58,2051.58,3104.98,3084.99,3341.98,350.27,321.93,29.72,0000 0000 0000 0000 000000
2013-07-22 00:01:23,-0.04,0.88,0.00,25.43,28.32,30.59,5.68,34.00,1018.59,2051.44,3104.98,3084.99,3341.98,348.59,320.49,29.73,0000 0000 0000 0000 000000
2013-07-22 00:02:24,-0.09,0.88,0.00,25.43,28.32,30.55,5.98,33.63,1018.58,2051.38,3104.97,3084.99,3341.98,350.77,322.65,29.74,0000 0000 0000 0000 000000
2013-07-22 00:03:24,-0.01,0.88,0.00,25.46,28.32,30.51,5.90,33.79,1018.57,2051.51,3104.98,3084.99,3341.97,350.04,321.95,29.74,0000 0000 0000 0000 000000
2013-07-22 00:04:24,0.04,0.88,0.00,25.44,28.32,30.56,5.99,33.96,1018.58,2051.52,3104.96,3084.99,3341.97,350.52,322.42,29.75,0000 0000 0000 0000 000000
2013-07-22 00:05:24,0.05,0.88,0.00,25.47,28.32,30.61,5.78,33.79,1018.57,2051.57,3104.96,3084.99,3341.98,348.69,320.70,29.75,0000 0000 0000 0000 000000
2013-07-22 00:06:25,0.01,0.88,0.00,25.47,28.32,30.54,6.07,34.04,1018.57,2051.55,3104.94,3084.99,3341.97,350.17,322.06,29.76,0000 0000 0000 0000 000000
2013-07-22 00:07:25,-0.02,0.88,0.00,25.50,28.31,30.59,6.01,33.83,1018.57,2051.51,3104.97,3084.99,3341.98,350.73,322.77,29.76,0000 0000 0000 0000 000000
2013-07-22 00:08:25,0.01,0.88,0.00,25.46,28.31,30.60,6.00,34.08,1018.57,2051.51,3104.94,3084.99,3341.97,349.75,321.73,29.77,0000 0000 0000 0000 000000
2013-07-22 00:09:26,-0.06,0.88,0.00,25.46,28.31,30.66,5.93,33.88,1018.59,2051.36,3104.95,3084.99,3341.96,350.36,322.27,29.78,0000 0000 0000 0000 000000
2013-07-22 00:10:26,-0.14,0.88,0.00,25.45,28.30,30.63,5.97,33.92,1018.57,2051.30,3104.95,3084.99,3341.96,349.99,321.77,29.78,0000 0000 0000 0000 000000
2013-07-22 00:11:26,-0.01,0.88,0.00,25.44,28.30,30.61,5.92,34.00,1018.58,2051.40,3104.94,3084.99,3341.93,350.16,322.09,29.79,0000 0000 0000 0000 000000
2013-07-22 00:12:26,0.04,0.88,0.00,25.41,28.30,30.67,5.87,34.04,1018.58,2051.31,3104.96,3084.99,3341.89,348.25,320.56,29.79,0000 0000 0000 0000 000000
2013-07-22 00:13:27,-0.03,0.88,0.00,25.43,28.30,30.69,5.94,34.04,1018.57,2051.38,3104.97,3084.99,3341.95,349.86,321.47,29.80,0000 0000 0000 0000 000000
2013-07-22 00:14:27,0.08,0.88,0.00,25.47,28.30,30.65,5.91,34.04,1018.58,2051.56,3104.98,3084.99,3341.96,349.88,321.84,29.81,0000 0000 0000 0000 000000
2013-07-22 00:15:27,0.09,0.88,0.00,25.48,28.30,30.61,5.98,34.04,1018.58,2051.50,3104.99,3084.99,3341.96,349.95,321.85,29.81,0000 0000 0000 0000 000000
2013-07-22 00:16:28,-0.03,0.88,0.00,25.48,28.30,30.64,5.95,34.00,1018.59,2051.53,3104.97,3084.99,3341.97,349.08,321.06,29.82,0000 0000 0000 0000 000000
2013-07-22 00:17:28,-0.01,0.88,0.00,25.45,28.30,30.61,5.84,34.08,1018.58,2051.57,3104.98,3084.99,3341.97,349.40,321.41,29.82,0000 0000 0000 0000 000000
2013-07-22 00:18:28,0.04,0.88,0.00,25.45,28.30,30.60,6.03,34.17,1018.59,2051.55,3104.99,3084.99,3341.98,350.12,321.82,29.83,0000 0000 0000 0000 000000
2013-07-22 00:19:28,0.01,0.88,0.00,25.44,28.30,30.58,6.03,33.88,1018.59,2051.63,3104.98,3084.99,3341.99,350.12,322.22,29.83,0000 0000 0000 0000 000000
2013-07-22 00:20:28,0.08,0.88,0.00,25.43,28.30,30.61,5.90,34.00,1018.58,2051.77,3104.98,3084.99,3341.98,348.75,320.92,29.84,0000 0000 0000 0000 000000
2013-07-22 00:21:29,0.08,0.88,0.00,25.45,28.30,30.66,5.86,33.96,1018.57,2051.77,3104.98,3084.99,3341.98,349.14,321.13,29.85,0000 0000 0000 0000 000000
2013-07-22 00:22:29,-0.01,0.88,0.00,25.46,28.30,30.64,6.07,33.92,1018.58,2051.81,3104.98,3084.99,3341.99,350.28,322.17,29.85,0000 0000 0000 0000 000000
2013-07-22 00:23:29,0.04,0.88,0.00,25.47,28.30,30.59,5.91,33.96,1018.60,2051.91,3104.99,3084.99,3341.99,349.14,321.11,29.86,0000 0000 0000 0000 000000
2013-07-22 00:24:29,0.07,0.88,0.00,25.43,28.29,30.59,5.93,34.25,1018.65,2051.89,3104.99,3084.99,3341.99,350.01,321.98,29.86,0000 0000 0000 0000 000000
2013-07-22 00:25:30,-0.03,0.88,0.00,25.39,28.29,30.61,5.91,34.08,1018.74,2051.82,3104.98,3084.99,3341.99,349.67,321.74,29.87,0000 0000 0000 0000 000000
2013-07-22 00:26:30,-0.01,0.88,0.00,25.40,28.28,30.64,5.98,34.21,1018.77,2051.89,3104.99,3084.99,3341.98,349.22,321.33,29.88,0000 0000 0000 0000 000000
2013-07-22 00:27:30,0.03,0.88,0.00,25.40,28.28,30.61,5.93,34.08,1018.83,2051.92,3104.99,3084.99,3341.98,349.49,321.45,29.88,0000 0000 0000 0000 000000
2013-07-22 00:28:30,0.02,0.88,0.00,25.45,28.28,30.58,5.94,34.04,1018.75,2051.89,3104.99,3084.99,3341.98,349.76,321.34,29.89,0000 0000 0000 0000 000000
2013-07-22 00:29:31,-0.01,0.88,0.00,25.44,28.27,30.58,6.00,34.04,1018.77,2051.90,3104.99,3084.99,3341.99,348.90,321.24,29.89,0000 0000 0000 0000 000000
2013-07-22 00:30:31,-0.01,0.88,0.00,25.47,28.27,30.58,5.82,33.96,1018.80,2051.88,3104.97,3084.99,3341.98,349.46,320.99,29.90,0000 0000 0000 0000 000000
2013-07-22 00:31:31,-0.02,0.88,0.00,25.48,28.27,30.58,5.93,34.08,1018.78,2051.79,3104.96,3084.99,3341.97,350.48,322.39,29.90,0000 0000 0000 0000 000000
2013-07-22 00:32:31,-0.04,0.88,0.00,25.50,28.27,30.63,5.93,34.13,1018.90,2051.84,3104.98,3084.99,3341.98,350.38,322.32,29.91,0000 0000 0000 0000 000000
2013-07-22 00:33:31,0.00,0.88,0.00,25.48,28.27,30.61,5.87,34.04,1018.93,2051.82,3104.97,3084.99,3341.98,349.59,321.63,29.92,0000 0000 0000 0000 000000
2013-07-22 00:34:32,0.01,0.88,0.00,25.48,28.27,30.64,6.12,34.21,1018.99,2051.87,3104.97,3084.99,3341.99,350.41,321.77,29.92,0000 0000 0000 0000 000000
2013-07-22 00:35:32,0.02,0.88,0.00,25.45,28.27,30.65,5.93,33.75,1019.03,2051.91,3104.97,3085.00,3341.99,349.77,322.10,29.93,0000 0000 0000 0000 000000
2013-07-22 00:36:32,0.02,0.88,0.00,25.42,28.27,30.63,5.98,33.92,1019.03,2051.92,3104.95,3085.00,3341.99,350.87,322.39,29.93,0000 0000 0000 0000 000000
2013-07-22 00:37:32,0.02,0.88,0.00,25.41,28.27,30.59,5.93,33.96,1019.04,2051.93,3104.96,3085.00,3341.99,350.64,322.71,29.94,0000 0000 0000 0000 000000
2013-07-22 00:38:33,-0.00,0.88,0.00,25.40,28.27,30.59,5.86,34.00,1019.04,2051.95,3104.97,3085.00,3341.99,349.49,321.62,29.95,0000 0000 0000 0000 000000
2013-07-22 00:39:33,0.02,0.88,0.00,25.40,28.27,30.58,5.92,33.79,1019.06,2051.96,3104.99,3085.01,3341.99,349.92,321.73,29.95,0000 0000 0000 0000 000000
2013-07-22 00:40:33,0.00,0.88,0.00,25.41,28.26,30.58,6.04,34.50,1019.04,2051.94,3104.97,3085.00,3341.99,350.02,322.41,29.96,0000 0000 0000 0000 000000
2013-07-22 00:41:33,-0.02,0.88,0.00,25.45,28.26,30.56,5.92,34.00,1019.06,2051.94,3104.96,3085.00,3341.99,348.73,321.16,29.96,0000 0000 0000 0000 000000
2013-07-22 00:42:34,0.01,0.88,0.00,25.47,28.25,30.59,5.94,34.17,1019.06,2051.94,3104.94,3085.00,3341.99,350.00,322.06,29.97,0000 0000 0000 0000 000000
2013-07-22 00:43:34,0.01,0.88,0.00,25.50,28.25,30.60,5.88,34.17,1019.06,2051.94,3104.91,3085.00,3341.98,349.25,321.34,29.98,0000 0000 0000 0000 000000
2013-07-22 00:44:34,0.00,0.88,0.00,25.48,28.25,30.59,6.09,34.13,1019.05,2051.93,3104.91,3085.00,3341.99,351.78,323.68,29.98,0000 0000 0000 0000 000000
2013-07-22 00:45:34,-0.01,0.88,0.00,25.46,28.25,30.57,5.93,33.92,1019.06,2051.94,3104.91,3085.00,3341.99,349.64,321.74,29.99,0000 0000 0000 0000 000000
2013-07-22 00:46:34,0.01,0.88,0.00,25.47,28.25,30.57,5.97,34.04,1019.06,2051.94,3104.94,3085.00,3341.99,349.94,322.01,29.99,0000 0000 0000 0000 000000
2013-07-22 00:47:35,-0.01,0.88,0.00,25.44,28.25,30.59,5.91,33.58,1019.06,2051.95,3104.96,3085.00,3341.99,350.13,322.50,30.00,0000 0000 0000 0000 000000
2013-07-22 00:48:35,0.01,0.88,0.00,25.43,28.25,30.59,5.92,34.04,1019.06,2051.97,3104.97,3085.01,3341.99,348.78,320.97,30.00,0000 0000 0000 0000 000000
2013-07-22 00:49:35,0.01,0.88,0.00,25.45,28.25,30.60,5.83,33.79,1019.06,2051.99,3104.94,3085.00,3341.99,348.29,320.51,30.01,0000 0000 0000 0000 000000
2013-07-22 00:50:36,0.01,0.88,0.00,25.46,28.25,30.60,6.02,33.96,1019.06,2051.99,3104.90,3085.00,3341.99,349.92,322.05,30.02,0000 0000 0000 0000 000000
2013-07-22 00:51:36,0.00,0.88,0.00,25.45,28.25,30.59,6.13,33.75,1019.06,2051.98,3104.91,3085.00,3341.99,352.27,324.23,30.02,0000 0000 0000 0000 000000
2013-07-22 00:52:36,-0.01,0.88,0.00,25.48,28.25,30.58,6.05,33.92,1019.06,2051.96,3104.93,3085.00,3341.99,350.82,322.80,30.03,0000 0000 0000 0000 000000
2013-07-22 00:53:36,-0.02,0.88,0.00,25.46,28.25,30.60,6.02,33.88,1019.06,2051.97,3104.97,3085.01,3341.99,350.01,322.08,30.03,0000 0000 0000 0000 000000
2013-07-22 00:54:36,0.01,0.88,0.00,25.47,28.25,30.59,5.86,33.79,1019.06,2051.97,3104.96,3085.00,3341.99,349.86,321.92,30.04,0000 0000 0000 0000 000000
2013-07-22 00:55:36,0.00,0.88,0.00,25.46,28.24,30.59,6.01,33.83,1019.06,2051.96,3104.94,3085.00,3341.98,350.38,322.56,30.05,0000 0000 0000 0000 000000
2013-07-22 00:56:37,0.00,0.88,0.00,25.45,28.23,30.55,5.94,33.83,1019.06,2051.96,3104.96,3085.00,3341.99,349.07,320.85,30.05,0000 0000 0000 0000 000000
2013-07-22 00:57:37,0.00,0.88,0.00,25.48,28.23,30.52,5.96,33.92,1019.06,2051.99,3104.95,3085.01,3341.99,349.63,321.79,30.06,0000 0000 0000 0000 000000
2013-07-22 00:58:37,0.01,0.88,0.00,25.47,28.23,30.55,5.97,34.00,1019.06,2051.99,3104.88,3085.01,3341.99,350.02,322.07,30.06,0000 0000 0000 0000 000000
2013-07-22 00:59:37,0.00,0.88,0.00,25.45,28.22,30.57,5.92,33.83,1019.07,2051.99,3104.91,3085.03,3341.99,350.30,322.36,30.07,0000 0000 0000 0000 000000
2013-07-22 01:00:38,0.00,0.88,0.00,25.44,28.22,30.58,5.84,34.00,1019.07,2051.99,3104.86,3085.01,3341.99,349.08,321.36,30.07,0000 0000 0000 0000 000000
2013-07-22 01:01:38,0.02,0.88,0.00,25.42,28.22,30.60,6.12,34.08,1019.06,2051.99,3104.74,3085.00,3341.99,350.93,323.08,30.08,0000 0000 0000 0000 000000
2013-07-22 01:02:38,0.00,0.88,0.00,25.43,28.22,30.56,6.05,33.88,1019.07,2051.99,3104.68,3085.00,3341.99,350.27,321.94,30.09,0000 0000 0000 0000 000000
2013-07-22 01:03:38,0.02,0.88,0.00,25.44,28.22,30.59,6.02,33.92,1019.07,2051.99,3104.50,3085.01,3341.99,350.01,321.92,30.09,0000 0000 0000 0000 000000
2013-07-22 01:04:38,0.03,0.89,0.00,25.45,28.22,30.58,5.95,34.13,1019.06,2051.99,3104.54,3085.00,3341.98,350.02,322.00,30.10,0000 0000 0000 0000 000000
2013-07-22 01:05:38,-0.01,0.89,0.00,25.48,28.22,30.56,6.08,34.13,1019.09,2051.99,3104.59,3085.00,3341.99,350.59,322.66,30.10,0000 0000 0000 0000 000000
2013-07-22 01:06:39,-0.00,0.89,0.00,25.48,28.22,30.61,5.93,34.33,1019.09,2051.99,3104.74,3085.00,3341.99,349.38,321.48,30.11,0000 0000 0000 0000 000000
2013-07-22 01:07:39,-0.02,0.88,0.00,25.52,28.22,30.58,5.98,33.96,1019.07,2051.99,3104.79,3085.00,3341.99,350.94,322.88,30.12,0000 0000 0000 0000 000000
2013-07-22 01:08:39,-0.01,0.88,0.00,25.54,28.22,30.58,5.94,33.79,1019.09,2051.99,3104.75,3085.00,3341.99,350.23,322.20,30.12,0000 0000 0000 0000 000000
2013-07-22 01:09:39,0.01,0.88,0.00,25.51,28.22,30.60,5.90,33.75,1019.08,2051.99,3104.56,3085.02,3341.99,350.02,322.22,30.13,0000 0000 0000 0000 000000
2013-07-22 01:10:39,0.01,0.89,0.00,25.49,28.22,30.54,5.83,33.88,1019.10,2051.99,3104.56,3085.01,3341.99,350.15,322.19,30.13,0000 0000 0000 0000 000000
2013-07-22 01:11:40,0.00,0.89,0.00,25.51,28.22,30.56,5.82,33.96,1019.08,2051.99,3104.61,3085.00,3341.99,349.54,321.59,30.14,0000 0000 0000 0000 000000
2013-07-22 01:12:40,-0.02,0.88,0.00,25.48,28.22,30.54,5.83,33.63,1019.07,2051.99,3104.59,3085.00,3341.99,350.16,321.57,30.15,0000 0000 0000 0000 000000
2013-07-22 01:13:40,0.01,0.89,0.00,25.45,28.21,30.53,5.85,33.96,1019.07,2051.99,3104.58,3085.00,3341.99,350.00,322.07,30.15,0000 0000 0000 0000 000000
2013-07-22 01:14:40,0.00,0.89,0.00,25.45,28.21,30.56,5.92,33.71,1019.07,2051.99,3104.53,3085.00,3341.98,348.89,320.76,30.16,0000 0000 0000 0000 000000
2013-07-22 01:15:41,0.01,0.89,0.00,25.45,28.20,30.57,5.93,33.92,1019.07,2051.99,3104.34,3085.00,3341.99,350.80,322.66,30.16,0000 0000 0000 0000 000000
2013-07-22 01:16:41,0.02,0.89,0.00,25.44,28.20,30.56,5.88,33.83,1019.08,2051.99,3104.35,3085.00,3341.99,350.14,322.22,30.17,0000 0000 0000 0000 000000
2013-07-22 01:17:41,0.00,0.89,0.00,25.45,28.20,30.55,6.06,33.88,1019.09,2051.99,3104.18,3085.00,3341.99,350.64,322.68,30.17,0000 0000 0000 0000 000000
2013-07-22 01:18:41,0.02,0.89,0.00,25.46,28.20,30.55,5.83,33.50,1019.10,2051.99,3104.09,3085.00,3341.99,349.63,322.00,30.18,0000 0000 0000 0000 000000
2013-07-22 01:19:42,0.00,0.89,0.00,25.48,28.20,30.56,5.94,33.92,1019.08,2051.99,3104.13,3085.00,3341.99,349.86,322.15,30.19,0000 0000 0000 0000 000000
2013-07-22 01:20:42,0.00,0.89,0.00,25.50,28.20,30.55,6.02,33.88,1019.07,2051.99,3104.07,3085.00,3341.99,350.72,322.58,30.19,0000 0000 0000 0000 000000
2013-07-22 01:21:42,0.00,0.89,0.00,25.50,28.20,30.56,6.00,33.79,1019.07,2051.99,3104.06,3085.00,3341.99,349.94,321.92,30.20,0000 0000 0000 0000 000000
2013-07-22 01:22:42,0.00,0.89,0.00,25.48,28.20,30.55,5.93,33.75,1019.07,2051.99,3104.05,3085.00,3341.98,349.55,321.60,30.20,0000 0000 0000 0000 000000
2013-07-22 01:23:42,0.00,0.89,0.00,25.50,28.20,30.54,5.87,33.88,1019.08,2051.99,3104.18,3085.00,3341.98,349.29,321.57,30.21,0000 0000 0000 0000 000000
2013-07-22 01:24:42,-0.01,0.89,0.00,25.49,28.20,30.56,6.01,33.67,1019.09,2051.99,3104.32,3085.00,3341.99,350.45,322.88,30.22,0000 0000 0000 0000 000000
2013-07-22 01:25:43,-0.02,0.89,0.00,25.49,28.20,30.58,6.00,33.96,1019.09,2051.99,3104.31,3085.01,3341.98,349.57,321.51,30.22,0000 0000 0000 0000 000000
2013-07-22 01:26:43,0.01,0.89,0.00,25.51,28.20,30.60,5.92,33.88,1019.11,2051.99,3104.17,3085.00,3341.99,349.45,321.44,30.23,0000 0000 0000 0000 000000
2013-07-22 01:27:43,0.01,0.89,0.00,25.54,28.20,30.54,5.89,33.88,1019.10,2051.99,3104.22,3085.01,3341.99,350.04,322.11,30.23,0000 0000 0000 0000 000000
2013-07-22 01:28:44,-0.01,0.89,0.00,25.52,28.20,30.56,6.03,34.17,1019.09,2051.99,3104.36,3085.00,3341.99,349.91,321.93,30.24,0000 0000 0000 0000 000000
2013-07-22 01:29:44,-0.01,0.89,0.00,25.50,28.20,30.54,5.91,33.63,1019.10,2051.99,3104.29,3085.00,3341.99,350.20,322.54,30.24,0000 0000 0000 0000 000000
2013-07-22 01:30:44,0.00,0.89,0.00,25.47,28.20,30.54,5.98,34.00,1019.11,2051.99,3104.23,3085.01,3341.99,350.32,322.37,30.25,0000 0000 0000 0000 000000
2013-07-22 01:31:45,0.00,0.89,0.00,25.48,28.20,30.52,6.10,33.96,1019.11,2051.99,3104.36,3085.04,3341.99,351.00,322.99,30.26,0000 0000 0000 0000 000000
2013-07-22 01:32:45,-0.02,0.89,0.00,25.52,28.20,30.53,5.88,34.08,1019.11,2051.99,3104.30,3085.01,3341.98,349.66,321.71,30.26,0000 0000 0000 0000 000000
2013-07-22 01:33:45,0.02,0.89,0.00,25.58,28.20,30.56,5.93,34.08,1019.11,2051.99,3104.16,3085.00,3341.97,349.79,321.51,30.27,0000 0000 0000 0000 000000
2013-07-22 01:34:45,0.02,0.89,0.00,25.55,28.20,30.54,6.08,33.83,1019.13,2051.99,3104.11,3085.00,3341.97,350.29,322.49,30.27,0000 0000 0000 0000 000000
2013-07-22 01:35:46,0.00,0.89,0.00,25.51,28.19,30.57,6.07,33.79,1019.22,2051.99,3104.08,3085.00,3341.98,351.06,323.13,30.28,0000 0000 0000 0000 000000
2013-07-22 01:36:46,0.00,0.89,0.00,25.53,28.19,30.58,6.05,33.92,1019.25,2051.99,3104.07,3085.00,3341.98,350.80,322.95,30.29,0000 0000 0000 0000 000000
2013-07-22 01:37:46,0.00,0.89,0.00,25.53,28.19,30.59,5.77,33.75,1019.31,2051.99,3104.06,3085.00,3341.97,348.51,320.98,30.29,0000 0000 0000 0000 000000
2013-07-22 01:38:46,0.00,0.89,0.00,25.50,28.18,30.57,5.94,33.83,1019.40,2051.99,3104.03,3085.00,3341.96,349.15,321.36,30.30,0000 0000 0000 0000 000000
2013-07-22 01:39:46,0.00,0.89,0.00,25.47,28.18,30.56,6.02,33.92,1019.41,2051.99,3104.01,3085.00,3341.97,350.57,322.67,30.30,0000 0000 0000 0000 000000
2013-07-22 01:40:46,0.00,0.89,0.00,25.52,28.18,30.55,5.92,33.92,1019.49,2051.99,3104.00,3085.00,3341.97,349.20,320.89,30.31,0000 0000 0000 0000 000000
2013-07-22 01:41:47,0.00,0.89,0.00,25.53,28.18,30.55,5.96,34.21,1019.51,2051.99,3104.01,3085.00,3341.95,349.42,321.20,30.32,0000 0000 0000 0000 000000
2013-07-22 01:42:47,0.00,0.89,0.00,25.58,28.18,30.55,5.94,33.88,1019.53,2051.99,3104.00,3085.00,3341.93,351.55,323.25,30.32,0000 0000 0000 0000 000000
2013-07-22 01:43:47,0.00,0.89,0.00,25.57,28.17,30.54,5.86,34.04,1019.53,2051.99,3104.00,3085.00,3341.67,349.93,322.08,30.33,0000 0000 0000 0000 000000
2013-07-22 01:44:47,0.04,0.89,0.00,25.56,28.17,30.57,5.92,33.96,1019.52,2051.99,3103.98,3084.99,3341.31,349.86,321.80,30.33,0000 0000 0000 0000 000000
2013-07-22 01:45:47,0.05,0.89,0.00,25.54,28.17,30.57,5.84,33.63,1019.54,2051.99,3103.98,3084.99,3341.30,351.06,323.16,30.34,0000 0000 0000 0000 000000
2013-07-22 01:46:47,0.00,0.89,0.00,25.57,28.17,30.56,5.99,33.67,1019.54,2051.99,3103.99,3084.98,3341.35,350.10,322.19,30.34,0000 0000 0000 0000 000000
2013-07-22 01:47:48,-0.01,0.89,0.00,25.57,28.17,30.58,5.78,34.08,1019.55,2051.99,3103.99,3084.98,3341.24,348.98,321.27,30.35,0000 0000 0000 0000 000000
2013-07-22 01:48:48,0.02,0.89,0.00,25.58,28.17,30.56,5.94,33.96,1019.55,2051.99,3103.98,3084.97,3341.18,350.41,321.89,30.36,0000 0000 0000 0000 000000
2013-07-22 01:49:48,0.00,0.89,0.00,25.56,28.17,30.56,5.86,33.96,1019.54,2051.99,3103.91,3084.97,3341.11,348.33,320.12,30.36,0000 0000 0000 0000 000000
2013-07-22 01:50:48,0.02,0.89,0.00,25.55,28.17,30.57,5.95,33.75,1019.53,2051.99,3103.90,3084.97,3341.10,350.33,322.36,30.37,0000 0000 0000 0000 000000
2013-07-22 01:51:48,0.00,0.89,0.00,25.54,28.17,30.60,6.04,33.63,1019.52,2052.00,3103.87,3084.96,3341.08,350.45,322.90,30.37,0000 0000 0000 0000 000000
2013-07-22 01:52:48,0.01,0.89,0.00,25.55,28.17,30.59,5.91,33.96,1019.52,2052.00,3103.71,3084.97,3341.11,349.57,321.72,30.38,0000 0000 0000 0000 000000
2013-07-22 01:53:49,0.02,0.89,0.00,25.56,28.17,30.56,5.87,33.92,1019.53,2052.00,3103.59,3084.95,3341.07,350.43,322.51,30.39,0000 0000 0000 0000 000000
2013-07-22 01:54:49,0.02,0.89,0.00,25.57,28.17,30.57,6.00,33.79,1019.54,2052.01,3103.66,3084.97,3341.09,350.12,322.21,30.39,0000 0000 0000 0000 000000
2013-07-22 01:55:49,-0.03,0.89,0.00,25.59,28.17,30.57,6.04,34.13,1019.54,2052.01,3103.71,3084.95,3341.12,350.56,322.60,30.40,0000 0000 0000 0000 000000
2013-07-22 01:56:49,0.00,0.89,0.00,25.61,28.17,30.58,5.98,33.88,1019.55,2052.01,3103.66,3084.95,3341.13,349.52,321.62,30.40,0000 0000 0000 0000 000000
2013-07-22 01:57:50,0.00,0.89,0.00,25.63,28.17,30.57,5.83,33.96,1019.55,2052.01,3103.53,3084.96,3341.08,348.05,319.92,30.41,0000 0000 0000 0000 000000
2013-07-22 01:58:50,0.03,0.89,0.00,25.65,28.17,30.59,5.94,33.71,1019.54,2052.00,3103.41,3084.94,3341.04,350.02,322.04,30.41,0000 0000 0000 0000 000000
2013-07-22 01:59:50,0.02,0.89,0.00,25.63,28.17,30.59,5.89,33.75,1019.55,2052.00,3103.22,3084.78,3341.02,348.56,321.06,30.42,0000 0000 0000 0000 000000
2013-07-22 02:00:50,0.07,0.89,0.00,25.62,28.17,30.58,6.01,33.71,1019.54,2052.00,3103.09,3084.53,3341.00,349.94,321.74,30.43,0000 0000 0000 0000 000000
2013-07-22 02:01:50,0.08,0.89,0.00,25.61,28.17,30.57,5.99,34.00,1019.54,2052.00,3103.03,3084.21,3341.00,348.56,320.77,30.43,0000 0000 0000 0000 000000
2013-07-22 02:02:51,0.07,0.89,0.00,25.62,28.17,30.56,5.92,33.63,1019.54,2052.00,3103.01,3084.08,3340.98,349.34,321.44,30.44,0000 0000 0000 0000 000000
2013-07-22 02:03:51,0.03,0.89,0.00,25.56,28.17,30.57,5.93,33.79,1019.55,2052.00,3102.80,3084.03,3340.82,350.31,322.39,30.44,0000 0000 0000 0000 000000
2013-07-22 02:04:51,0.07,0.89,0.00,25.57,28.17,30.60,5.92,33.92,1019.55,2052.00,3102.33,3084.00,3340.40,350.22,322.31,30.45,0000 0000 0000 0000 000000
2013-07-22 02:05:51,0.14,0.89,0.00,25.61,28.17,30.59,6.01,33.71,1019.55,2052.01,3102.13,3083.99,3340.18,350.32,322.70,30.46,0000 0000 0000 0000 000000
2013-07-22 02:06:52,0.05,0.89,0.00,25.59,28.17,30.59,5.96,33.88,1019.55,2052.00,3102.05,3083.91,3340.07,350.46,322.41,30.46,0000 0000 0000 0000 000000
2013-07-22 02:07:52,0.02,0.89,0.00,25.61,28.17,30.60,5.93,33.75,1019.55,2052.00,3102.01,3083.71,3340.03,349.61,321.70,30.47,0000 0000 0000 0000 000000
2013-07-22 02:08:52,0.06,0.89,0.00,25.62,28.17,30.61,5.97,33.71,1019.55,2052.00,3101.99,3083.42,3340.00,349.95,322.01,30.47,0000 0000 0000 0000 000000
2013-07-22 02:09:52,0.08,0.89,0.00,25.63,28.17,30.64,6.05,33.50,1019.55,2052.01,3101.96,3083.21,3340.00,351.29,323.10,30.48,0000 0000 0000 0000 000000
2013-07-22 02:10:52,0.05,0.89,0.00,25.62,28.18,30.65,5.87,33.50,1019.55,2052.00,3101.68,3083.08,3339.97,349.26,321.91,30.48,0000 0000 0000 0000 000000
2013-07-22 02:11:53,0.07,0.89,0.00,25.65,28.18,30.64,5.85,34.00,1019.55,2052.00,3101.26,3083.03,3339.69,348.78,320.90,30.49,0000 0000 0000 0000 000000
2013-07-22 02:12:53,0.11,0.89,0.00,25.67,28.18,30.62,5.77,33.71,1019.55,2052.00,3101.09,3083.01,3339.32,350.15,322.12,30.50,0000 0000 0000 0000 000000
2013-07-22 02:13:53,0.08,0.89,0.00,25.67,28.18,30.60,5.96,33.71,1019.55,2052.00,3101.03,3083.00,3339.12,349.56,321.43,30.50,0000 0000 0000 0000 000000
2013-07-22 02:14:53,0.03,0.89,0.00,25.66,28.18,30.61,5.86,33.38,1019.54,2052.00,3101.01,3082.98,3339.05,350.33,322.31,30.51,0000 0000 0000 0000 000000
2013-07-22 02:15:54,0.01,0.89,0.00,25.64,28.19,30.64,5.89,33.63,1019.55,2052.00,3101.00,3082.98,3339.02,350.92,322.88,30.51,0000 0000 0000 0000 000000
2013-07-22 02:16:54,0.00,0.89,0.00,25.66,28.19,30.64,5.82,33.88,1019.55,2052.00,3100.97,3082.97,3339.01,349.95,321.96,30.52,0000 0000 0000 0000 000000
2013-07-22 02:17:54,0.00,0.89,0.00,25.69,28.19,30.64,5.94,33.96,1019.55,2052.00,3100.96,3082.97,3339.02,350.52,322.45,30.53,0000 0000 0000 0000 000000
2013-07-22 02:18:54,0.00,0.89,0.00,25.71,28.19,30.64,6.10,33.58,1019.55,2052.00,3100.90,3082.93,3339.01,350.49,322.41,30.53,0000 0000 0000 0000 000000
2013-07-22 02:19:55,0.02,0.89,0.00,25.73,28.19,30.64,6.02,33.58,1019.55,2052.00,3100.85,3082.93,3339.00,350.47,322.77,30.54,0000 0000 0000 0000 000000
2013-07-22 02:20:55,0.00,0.89,0.00,25.70,28.19,30.65,5.77,33.71,1019.55,2052.00,3100.90,3082.89,3339.00,349.09,321.15,30.54,0000 0000 0000 0000 000000
2013-07-22 02:21:55,0.00,0.89,0.00,25.70,28.20,30.68,5.82,33.67,1019.55,2052.00,3100.92,3082.91,3339.00,350.17,321.66,30.55,0000 0000 0000 0000 000000
2013-07-22 02:22:56,0.00,0.89,0.00,25.71,28.20,30.66,5.95,33.63,1019.55,2052.00,3100.88,3082.91,3339.00,350.37,321.69,30.55,0000 0000 0000 0000 000000
2013-07-22 02:23:56,0.01,0.89,0.00,25.73,28.20,30.66,5.92,33.75,1019.55,2052.01,3100.92,3082.92,3339.00,349.92,321.44,30.56,0000 0000 0000 0000 000000
2013-07-22 02:24:56,0.00,0.89,0.00,25.73,28.20,30.67,5.91,33.75,1019.56,2052.01,3100.90,3082.95,3339.01,349.13,320.70,30.57,0000 0000 0000 0000 000000
2013-07-22 02:25:56,0.00,0.89,0.00,25.71,28.20,30.66,5.91,33.83,1019.55,2052.01,3100.95,3082.95,3339.00,348.76,320.82,30.57,0000 0000 0000 0000 000000
2013-07-22 02:26:56,-0.00,0.89,0.00,25.68,28.20,30.67,5.97,33.79,1019.56,2052.01,3100.96,3082.98,3339.00,350.47,322.48,30.58,0000 0000 0000 0000 000000
2013-07-22 02:27:56,-0.02,0.89,0.00,25.69,28.20,30.67,5.86,33.79,1019.55,2052.00,3100.97,3082.99,3339.02,349.51,321.52,30.58,0000 0000 0000 0000 000000
2013-07-22 02:28:57,0.00,0.89,0.00,25.70,28.20,30.67,5.80,33.67,1019.55,2052.01,3100.97,3082.93,3339.01,349.31,320.89,30.59,0000 0000 0000 0000 000000
2013-07-22 02:29:57,0.02,0.89,0.00,25.70,28.20,30.66,5.85,33.38,1019.56,2052.00,3100.96,3082.92,3339.00,349.42,321.73,30.60,0000 0000 0000 0000 000000
2013-07-22 02:30:57,0.00,0.89,0.00,25.69,28.20,30.65,6.01,33.92,1019.56,2052.00,3100.90,3082.94,3339.00,350.55,322.38,30.60,0000 0000 0000 0000 000000
2013-07-22 02:31:57,-0.00,0.89,0.00,25.73,28.20,30.66,6.21,33.96,1019.56,2052.01,3100.89,3082.97,3339.00,351.61,322.67,30.61,0000 0000 0000 0000 000000
2013-07-22 02:32:58,-0.01,0.89,0.00,25.72,28.20,30.69,6.05,33.75,1019.57,2052.01,3100.93,3082.95,3339.00,351.15,323.03,30.61,0000 0000 0000 0000 000000
2013-07-22 02:33:58,0.01,0.89,0.00,25.78,28.20,30.69,5.82,33.92,1019.56,2052.00,3100.93,3082.91,3339.00,350.03,322.13,30.62,0000 0000 0000 0000 000000
2013-07-22 02:34:58,0.00,0.89,0.00,25.77,28.20,30.66,5.91,33.83,1019.57,2052.00,3100.91,3082.84,3339.00,349.05,321.05,30.63,0000 0000 0000 0000 000000
2013-07-22 02:35:58,0.02,0.89,0.00,25.75,28.20,30.68,5.99,33.83,1019.57,2052.00,3100.77,3082.68,3339.00,350.91,322.85,30.63,0000 0000 0000 0000 000000